Hourly Weather Roundup
Issued by NWS Central Illinois

Home | Current Version | Previous Version | Text Only | Print | Product List | Glossary On
Versions: 1 2 3 4 5 6 7 8 9 10 11 12 13 14 15 16 17 18 19 20 21 22 23 24 25 26 27 28 29 30 31 32 33 34 35 36 37 38 39 40 41 42 43 44 45 46 47 48 49 50
000
NZUS43 KILX 271410
HWRILX

AREA WEATHER ROUNDUP
NATIONAL WEATHER SERVICE, LINCOLN IL
900 AM CDT SAT AUG 27 2016


CITY           SKY/WX    TMP DP  RH WIND       PRES   REMARKS
BLOOMINGTON    PTSUNNY   74  72  93 S8        30.08S
CHAMPAIGN      PTSUNNY   76  72  87 S6        30.09F
DANVILLE       RAIN      74  72  92 S3        30.08F
DECATUR        CLOUDY    76  72  87 S7        30.08F
EFFINGHAM      SUNNY     75  73  93 CALM      30.11F
FLORA          CLOUDY    77  72  84 SE3       30.10S
GALESBURG      PTSUNNY   71  70  97 S7        30.04F
JACKSONVILLE   CLOUDY    75  73  91 SW7       30.06S
LACON          CLOUDY    72  70  95 S6        30.03S
LAWRENCEVILLE  LGT RAIN  73  72  96 CALM      30.13R
LITCHFIELD     CLOUDY    77  71  81 S3        30.10R
$$


CITY           SKY/WX    TMP DP  RH WIND       PRES   REMARKS
LINCOLN        MOSUNNY   76  73  89 S5        30.06S
MACOMB         CLOUDY    71  71 100 S8        30.07S
MATTOON        CLOUDY    76  70  82 SW6       30.09F
MT CARMEL AP   TSTM      72  71  96 E5        30.12R
OLNEY-NOBLE AP CLOUDY    72  72 100 E3        30.11S
PARIS          CLOUDY    76  72  89 CALM      30.11F
PEORIA         CLOUDY    72  72 100 S7        30.05R
PONTIAC        CLOUDY    73  73 100 SE6       30.06F FOG
RANTOUL        CLOUDY    77  74  91 SW3       30.09F
ROBINSON       CLOUDY    73  72  97 CALM      30.12S
SPRINGFIELD    CLOUDY    77  71  82 S6        30.07R
TAYLORVILLE    CLOUDY    75  73  93 CALM      30.08S
$$

...REGIONAL REPORTS...


CITY           SKY/WX    TMP DP  RH WIND       PRES   REMARKS
CHICAGO O`HARE CLOUDY    71  69  93 SE7       30.06F
KANKAKEE       CLOUDY    73  71  95 SE7       30.09F
MOLINE         PTSUNNY   75  70  84 SW10      30.02F
MOUNT STERLING PTSUNNY   73  71  92 S6        30.05F
MOUNT VERNON   SUNNY     75  66  73 CALM      30.11S
PITTSFIELD     CLOUDY    74  72  96 SW5       30.07S
QUINCY         MOSUNNY   75  74  96 SW6       30.05S
ROCKFORD       CLOUDY    69  67  93 E6        30.06F
$$


CITY           SKY/WX    TMP DP  RH WIND       PRES   REMARKS
BURLINGTON     PTSUNNY   73  72  96 SW7       30.04S
CEDAR RAPIDS   CLOUDY    70  70 100 S8        30.02S FOG
DES MOINES     CLOUDY    66  64  93 CALM      30.04R FOG
KIRKSVILLE     SUNNY     72  68  87 SW7       30.07S
OTTUMWA        PTSUNNY   71  67  87 W7        30.03S
ST LOUIS       CLOUDY    81  68  64 SW10      30.09R HX  84
$$


CITY           SKY/WX    TMP DP  RH WIND       PRES   REMARKS
TERRE HAUTE    PTSUNNY   78  72  81 CALM      30.11F HX  80
EVANSVILLE     CLOUDY    76  72  87 N5        30.12R
INDIANAPOLIS   TSTM      74  71  91 SW17G23   30.13R VSB 3/4
LAFAYETTE      CLOUDY    73  72  96 SE3       30.11R
MADISON        DRIZZLE   62  61  96 E6        30.08F FOG
MILWAUKEE      LGT RAIN  66  63  90 NE12      30.08F
$$






USA.gov is the U.S. government's official web portal to all federal, state and local government web resources and services.